Printer-friendly version

IAU Minor Planet Center

Minor Planet Center

MPEC 2005-O39 : 2005 OV1

The following Minor Planet Electronic Circular may be linked-to from your own Web pages, but must not otherwise be redistributed electronically.


Read MPEC 2005-O38 Read MPEC 2005-O40


M.P.E.C. 2005-O39                                Issued 2005 July 29, 11:37 UT

     The Minor Planet Electronic Circulars contain information on unusual
         minor planets and routine data on comets.  They are published
   on behalf of Commission 20 of the International Astronomical Union by the
          Minor Planet Center, Smithsonian Astrophysical Observatory,
                          Cambridge, MA 02138, U.S.A.

                  Supported in part by the Brinson Foundation
             Prepared using the Tamkin Foundation Computer Network

                              MPC@CFA.HARVARD.EDU
          URL http://cfa-www.harvard.edu/iau/mpc.html  ISSN 1523-6714

                                   2005 OV1

Observations:
     K05O01V* C2005 07 28.32556 22 10 00.42 -12 51 57.0          19.1   EO039644
     K05O01V  C2005 07 28.35337 22 10 05.53 -12 53 33.7          19.4   EO039644
     K05O01V  C2005 07 28.37406 22 10 09.33 -12 54 45.5          19.5   EO039644
     K05O01V  C2005 07 29.29144 22 13 16.26 -13 48 58.5          19.5 R EO039734
     K05O01V  C2005 07 29.29439 22 13 16.81 -13 49 09.6          19.4 R EO039734
     K05O01V  C2005 07 29.29734 22 13 17.40 -13 49 20.3          19.4 R EO039734
     K05O01V  C2005 07 29.30029 22 13 17.95 -13 49 30.9          19.5 R EO039734
     K05O01V  C2005 07 29.30323 22 13 18.50 -13 49 41.5          19.5 R EO039734
     K05O01V 2C2005 07 29.37450 22 13 32.62 -13 53 56.7          19.2 R EO039H06
     K05O01V 2C2005 07 29.37806 22 13 33.27 -13 54 09.7          19.4 R EO039H06

Observer details:
644 Palomar Mountain/NEAT.  Observers R. Bambery, M. Hicks, K. Lawrence,
    E. Helin, R. Thicksten.  1.2-m Schmidt + CCD.
734 Farpoint Observatory.  Observer G. Hug.  Measurer D. Tibbets.  0.7-m
    reflector + CCD.
H06 New Mexico Skies Observatory.  Observer R. Hutsebaut.  0.25-m reflector
    + CCD.

Orbital elements:
2005 OV1
Epoch 2005 July 29.0 TT = JDT 2453580.5                 MPC
M 331.46729              (2000.0)            P               Q
n   0.50039297     Peri.  235.20713     +0.98070000     -0.07150978
a   1.5713102      Node   128.19383     +0.11740322     +0.95962352
e   0.3140556      Incl.   13.38771     -0.15634578     +0.27204605
P   1.97           H   22.0           G   0.15
From 10 observations 2005 July 28-29.

Ephemeris:
2005 OV1                 a,e,i = 1.57, 0.31, 13                  q = 1.0778
Date    TT    R. A. (2000) Decl.     Delta      r     Elong.  Phase     V
2005 07 29    22 12.26   -13 30.9    0.193    1.194   155.6    20.5    19.8
2005 08 08    22 53.96   -25 35.6    0.159    1.160   154.4    22.2    19.4
2005 08 18    23 56.21   -39 55.5    0.146    1.130   141.4    34.0    19.5
2005 08 28    01 19.86   -50 53.4    0.153    1.106   125.7    47.9    19.9
2005 09 07    02 44.46   -55 31.9    0.172    1.089   114.0    57.7    20.4
2005 09 17    03 46.93   -55 51.4    0.197    1.080   107.2    62.8    20.9
2005 09 27    04 25.03   -54 25.5    0.221    1.078   104.2    64.3    21.2
2005 10 07    04 45.14   -52 21.3    0.244    1.085   104.0    63.4    21.4
2005 10 17    04 52.99   -49 49.4    0.263    1.099   106.0    60.7    21.5
2005 10 27    04 52.26   -46 42.5    0.279    1.120   109.8    56.6    21.5
2005 11 06    04 45.42   -42 42.3    0.293    1.147   115.1    51.5    21.5
2005 11 16    04 35.34   -37 30.5    0.309    1.180   121.4    45.7    21.5
2005 11 26    04 24.80   -31 05.0    0.328    1.216   127.8    39.8    21.6
2005 12 06    04 16.15   -23 41.7    0.357    1.257   133.1    34.9    21.7
2005 12 16    04 11.15   -15 56.0    0.398    1.299   135.8    31.9    21.9

Timothy B. Spahr             (C) Copyright 2005 MPC           M.P.E.C. 2005-O39

Read MPEC 2005-O38 Read MPEC 2005-O40


Our Web policy. Index to the CBAT/MPC/ICQ pages.


Valid HTML 4.01!